Change the Weather History Date:

Tuesday, December 3, 2013

  Actual Average Record
Temperature  
Mean Temperature 39 °F -  
Max Temperature 46 °F 41 °F 61 °F (1986)
Min Temperature 31 °F 26 °F 0 °F (1976)
Degree Days  
Heating Degree Days 26    
Moisture  
Dew Point 35 °F    
Average Humidity 90    
Maximum Humidity 100    
Minimum Humidity 62    
Precipitation  
Precipitation 0.00 in - - ()
Sea Level Pressure  
Sea Level Pressure 29.90 in    
Wind  
Wind Speed 6 mph (NW)    
Max Wind Speed 10 mph    
Max Gust Speed -    
Visibility 7 miles    
Events      
Averages and records for this station are not official NWS values.
T = Trace of Precipitation, MM = Missing Value Source: NWS Daily Summary

Daily Weather History Graph

Daily Weather History Graph

Search for Another Location

Airport or City:

Trip Planner

Search our weather history database for the weather conditions in past years. The results will help you decide how hot, cold, wet, or windy it might be!

Date:

Astronomy

Dec. 03, 2013 Rise Set
Actual Time 6:57 AM EST 4:08 PM EST
Civil Twilight 6:25 AM EST 4:40 PM EST
Nautical Twilight 5:49 AM EST 5:16 PM EST
Astronomical Twilight 5:15 AM EST 5:50 PM EST
Moon 7:22 AM EST (12/3) 5:09 PM EST (12/3)
Length of Visible Light 10h 15m
Length of Day
9h 11m
New Moon, 1% of the Moon is Illuminated
Dec 3
New Moon
Dec 9
First Quarter
Dec 17
Full
Dec 25
Last Quarter
Jan 1
New

Hourly Weather History & Observations

Time (EST) Temp. Windchill Dew Point Humidity Pressure Visibility Wind Dir Wind Speed Gust Speed Precip Events Conditions
12:58 AM 36.7 °F 32.9 °F 36.5 °F 99% 29.91 in 7.0 mi WNW 4.6 mph - N/A   Overcast
1:58 AM 36.7 °F 32.0 °F 36.5 °F 99% 29.93 in 7.0 mi West 5.8 mph - N/A   Overcast
2:58 AM 36.7 °F 31.2 °F 36.3 °F 99% 29.91 in 7.0 mi WNW 6.9 mph - N/A   Overcast
3:43 AM 35.6 °F 28.0 °F 35.6 °F 100% 29.88 in 7.0 mi NW 10.4 mph - N/A   Overcast
3:58 AM 36.1 °F 31.4 °F 36.0 °F 99% 29.91 in 7.0 mi NW 5.8 mph - N/A   Overcast
4:58 AM 35.6 °F 31.7 °F 35.4 °F 99% 29.91 in 7.0 mi WNW 4.6 mph - N/A   Overcast
5:58 AM 35.8 °F 30.1 °F 35.6 °F 99% 29.91 in 7.0 mi NW 6.9 mph - N/A   Overcast
6:28 AM 35.6 °F 30.7 °F 35.6 °F 100% 29.90 in 3.0 mi WNW 5.8 mph - N/A   Overcast
6:43 AM 35.6 °F 30.7 °F 35.6 °F 100% 29.90 in 1.5 mi NW 5.8 mph - N/A   Overcast
6:58 AM 35.6 °F 30.7 °F 35.4 °F 99% 29.91 in 1.2 mi WNW 5.8 mph - N/A   Overcast
7:58 AM 35.8 °F 30.1 °F 35.6 °F 99% 29.91 in 1.2 mi NW 6.9 mph - N/A   Overcast
8:30 AM 35.6 °F 30.7 °F 35.6 °F 100% 29.91 in 3.0 mi NW 5.8 mph - N/A   Overcast
8:58 AM 36.1 °F 29.9 °F 36.0 °F 99% 29.93 in 6.0 mi NW 8.1 mph - N/A   Overcast
9:58 AM 37.4 °F 32.1 °F 37.2 °F 99% 29.91 in 7.0 mi NW 6.9 mph - N/A   Overcast
10:56 AM 39.7 °F 34.3 °F 38.1 °F 94% 29.89 in 10.0 mi NW 8.1 mph - N/A   Mostly Cloudy
11:19 AM 41.0 °F 35.8 °F 37.4 °F 87% 29.87 in 10.0 mi NW 8.1 mph - N/A   Mostly Cloudy
11:35 AM 42.8 °F 37.5 °F 37.4 °F 81% 29.87 in 10.0 mi WNW 9.2 mph - N/A   Scattered Clouds
11:55 AM 42.8 °F 37.5 °F 36.7 °F 79% 29.87 in 10.0 mi North 9.2 mph - N/A   Scattered Clouds
12:58 PM 45.1 °F 42.0 °F 36.0 °F 70% 29.86 in 10.0 mi NW 5.8 mph - N/A   Mostly Cloudy
1:58 PM 46.6 °F - 34.3 °F 62% 29.86 in 10.0 mi NNW 9.2 mph - N/A   Mostly Cloudy
2:58 PM 44.6 °F 40.7 °F 34.0 °F 66% 29.86 in 10.0 mi NNW 6.9 mph - N/A   Mostly Cloudy
3:58 PM 43.3 °F 39.2 °F 34.0 °F 70% 29.86 in 10.0 mi North 6.9 mph - N/A   Mostly Cloudy
8:58 PM 33.4 °F 27.3 °F 30.0 °F 87% 29.91 in 10.0 mi West 6.9 mph - N/A   Clear
9:58 PM 32.4 °F 27.9 °F 28.9 °F 87% 29.91 in 10.0 mi West 4.6 mph - N/A   Clear
10:58 PM 32.7 °F 28.3 °F 29.5 °F 88% 29.91 in 10.0 mi West 4.6 mph - N/A   Clear
11:58 PM 31.3 °F 26.6 °F 28.9 °F 91% 29.93 in 10.0 mi West 4.6 mph - N/A   Clear